Regional Weather Roundup
Issued by NWS Pendleton, OR

Current Version | Previous Version | Text Only | Print | Product List | Glossary On
Versions: 1 2 3 4 5 6 7 8 9 10 11 12 13 14 15 16 17 18 19 20 21 22 23 24 25 26 27 28 29 30 31 32 33 34 35 36 37 38 39 40 41 42 43 44 45 46 47 48 49 50
000
ASUS46 KPDT 290310
RWRPDT
PENDLETON REGIONAL WEATHER ROUNDUP
NATIONAL WEATHER SERVICE PENDLETON OREGON
800 PM PDT MON JUL 28 2014

NOTE: FAIR INDICATES FEW OR NO CLOUDS BELOW 12,000 FEET WITH NO
SIGNIFICANT WEATHER AND/OR OBSTRUCTIONS TO VISIBILITY.

# INDICATES UNOFFICIAL STATION AND DATA

WAZ520-290410-
EAST SLOPES OF WASHINGTON CASCADES

CITY            SKY/WX      TMP DP  RH  WIND    PRES   REMARKS
#BUMPING DAM    N/A         74  N/A N/A CALM    N/A
#CLE ELUM HS    N/A         82  52  35  W6      29.99R
#CLE ELUM LAKE  N/A         79  53  41  NW1     29.91R
#CLIFFDEL 2NW   N/A         81  51  35  NW6     N/A
#EASTON DOT     N/A         79  34  20  N2      N/A
#ELK HTS DOT    N/A         85  85  100 SW2     N/A
#GLENWOOD       N/A         87  57  36  CALM    29.91S
#MANASTASH CYN  N/A         82  53  37  CALM    30.06R
#NELSON         N/A         82  55  40  CALM    29.95R
#NELSON 3SW     N/A         78  50  38  CALM    30.13R
#NILE           N/A         85  53  33  W1      29.22R
#PEOH POINT     N/A         78  47  34  W6      N/A
#RONALD 2NW     N/A         82  55  40  CALM    29.99R
#SOUTH BLEWITT  N/A         81  57  44  CALM    N/A
#TEANAWAY 4NE   N/A         83  58  43  SW1     N/A
#TROUT LAKE 1NE N/A         85  63  48  NW7     29.92S
$$

WAZ521-290410-
SIMCOE HIGHLANDS

CITY            SKY/WX      TMP DP  RH  WIND    PRES   REMARKS
#BICKLETON HS   N/A         90  31  12  CALM    30.09S HX 86
#SATUS PASS DOT N/A         88  39  18  CALM    N/A
#CENTERVILLE 1SWN/A         87  62  43  W9      29.86S
#GOLDENDALE 1NE N/A         92  42  18  SW2     N/A    HX 88
#GOLDENDALE 1S  N/A         91  58  33  W7      29.97R HX 90
#GOLDENDALE 5WNWN/A         90  61  38  W10     29.88R HX 90
#GOODNOE HILLS  N/A         94  55  27  W12     29.89R HX 92
#LYLE 6NE       N/A         85  64  50  S7      29.88S
$$

WAZ026-290410-
KITTITAS VALLEY

CITY            SKY/WX      TMP DP  RH  WIND    PRES   REMARKS
ELLENSBURG AP   CLEAR       87  51  29  NW17G29 30.00R
#ELLENSBURG CWU N/A         86  52  31  N17     29.85R
#ELLENSBURG 3NE N/A         85  54  35  N8      29.99S
#KITTITAS 3S    N/A         82  58  44  W3      29.86R
#RYEGRASS DOT   N/A         91  51  26  W13     N/A    HX 88
#THORP 6N       N/A         82  52  35  W22G35  29.91S
$$

WAZ027-290410-
YAKIMA VALLEY

CITY            SKY/WX      TMP DP  RH  WIND    PRES   REMARKS
YAKIMA AIRPORT  CLEAR       93  55  28  W3      29.94R HX 91
YAKIMA-VAGABOND CLEAR       97  40  14  N6      29.96S HX 92
#COWICHE 1N     N/A         87  54  32  NW8     30.11R
#DONALD 2NE     N/A         96  23   7  W1      30.25S HX 91
#GRANDVIEW      N/A         92  54  28  CALM    29.87S HX 90
#MABTON         N/A         97  62  32  CALM    29.89F HX 98
#MOXEE 2E       N/A         91  50  25  CALM    29.84R HX 88
#NACHES 2SW     N/A         87  57  36  W9      30.01S
#TERRACE HTS    N/A         96  50  21  CALM    29.83S HX 93
#TOPPENISH      N/A         95  64  36  CALM    29.78S HX 97
#WAPATO 4NE     N/A         94  25   8  W1      30.25S HX 89
#WEST VALLEY    N/A         96  53  24  N1      29.85R HX 94
#W YAKIMA       N/A         91  56  31  W3      29.87R HX 89
#WHITE SWAN 5E  N/A         91  68  47  W1      29.86S HX 95
#WILEY CITY 3W  N/A         85  35  17  CALM    29.93S
$$

WAZ028-290410-
LOWER COLUMBIA BASIN...WASHINGTON

CITY            SKY/WX      TMP DP  RH  WIND    PRES   REMARKS
PASCO           CLEAR       97  49  20  CALM    29.88S HX 94
PROSSER AWOS    N/A         90  63  41  CALM    29.93R HX 91
RICHLAND AWOS   CLEAR       99  41  14  SE3     29.88S HX 95
#BASIN CITY 5SW N/A         84  68  59  CALM    29.90S
#BENTON CITY    N/A         98  47  18  CALM    29.76S HX 94
#CONNELL 5N     N/A         97  46  18  CALM    29.85S HX 93
#CONNELL 5NW    N/A         94  60  32  W1      29.82S HX 94
#ELTOPIA        N/A         101 62  28  CALM    29.82S HX 103
#ELTOPIA 6NW    N/A         100 59  26  CALM    28.89S HX 100
#KENNEWICK 3S   N/A         96  54  25  CALM    29.86S HX 94
#PASCO-BROADMOORN/A         104 37  10  NE1     29.73R HX 99
#PATERSON       N/A         97  49  20  N1      29.84S HX 94
#PROSSER DOT    N/A         101 37  11  W1      N/A    HX 96
#PROSSER        N/A         101 37  11  CALM    29.85S HX 96
#SAGEMOOR 2W    N/A         98  66  35  CALM    29.72S HX 102
#TOUCHET 2S     N/A         86  63  46  CALM    29.84R
#WEST PASCO     N/A         104 53  19  CALM    29.85F HX 102
$$

WAZ029-290410-
FOOTHILLS OF THE BLUES...WASHINGTON

CITY            SKY/WX      TMP DP  RH  WIND    PRES   REMARKS
WALLA WALLA AP  CLEAR       94  50  23  S7      29.95R HX 91
#COLLEGE PLACE  N/A         104 53  19  CALM    29.89S HX 102
#DAYTON SCHOOL  N/A         95  48  20  CALM    29.95S HX 91
#LOWDEN 2SE     N/A         93  61  35  NW1     29.85S HX 93
#PLEASANT VIEW 1N/A         97  36  12  CALM    29.88S HX 92
#PRESCOTT       N/A         94  49  22  CALM    29.82R HX 91
#SUDBURY        N/A         94  N/A N/A W3      N/A
#WHITMAN COLLEGEN/A         96  52  23  S1      29.90S HX 93
#WAITSBURG 8N   N/A         87  30  13  CALM    29.79R
#WALLA WALLA 5E N/A         95  45  18  S15     N/A    HX 91
#WALLA WALLA U  N/A         98  53  22  CALM    29.84F HX 96
#WHITMAN MISSIONN/A         96  57  27  CALM    29.86S HX 95
$$

WAZ030-290410-
BLUE MOUNTAINS...WASHINGTON

CITY            SKY/WX      TMP DP  RH  WIND    PRES   REMARKS
$$

ORZ009-041-WAZ024-290410-
COLUMBIA RIVER GORGE

CITY            SKY/WX      TMP DP  RH  WIND    PRES   REMARKS
HOOD RIVER AP   CLEAR       88  61  41  SW3     29.96S
THE DALLES AP   CLEAR       91  59  34  NW14    29.91R HX 90
#ARLINGTON AIRPON/A         96  47  19  W10     N/A    HX 92
#ARLINGTON HS   N/A         100 46  16  CALM    29.75S HX 96
#CELILO DOT     N/A         94  61  34  N2      N/A    HX 94
#MARYHILL       N/A         95  55  26  CALM    N/A    HX 93
#MOSIER 1S      N/A         86  50  29  N8      30.03R
#MURDOCK        N/A         91  64  41  NW12    29.91R HX 93
#RUFUS DOT      N/A         98  60  29  W16     N/A    HX 98

$$

ORZ510-290410-
NORTH CENTRAL OREGON

CITY            SKY/WX      TMP DP  RH  WIND    PRES   REMARKS
#CHENOWITH 1W   N/A         84  57  40  W22     N/A
#COW CYN RST AREN/A         89  41  19  N10     N/A
#DUFUR 9E       N/A         86  54  34  NW9     29.93S
#GRASS VALLEY 1SN/A         89  50  26  N6      29.93R
#KENT DOT       N/A         87  38  18  N12     N/A
#MAUPIN SCHOOL  N/A         94  53  25  N7      29.97R HX 91
#MORO SCHOOL    N/A         89  61  39  NW9     30.02R
#SHANIKO 5WSW   N/A         86  38  18  NW17    N/A
#SHANIKO 4NW    N/A         85  38  19  VRB15   30.14R
#TYGH VALLEY 2NEN/A         94  52  24  N9      29.89R HX 91
#WAPANITIA AIRPON/A         92  50  24  N6      29.91R HX 89
#WASCO DOT      N/A         91  59  34  W8      N/A    HX 90
#WASCO 5NE      N/A         91  58  33  W5      29.88R HX 90
$$

ORZ511-290410-
CENTRAL OREGON

CITY            SKY/WX      TMP DP  RH  WIND    PRES   REMARKS
BEND AIRPORT    MOCLDY      86  39  19  CALM    30.13R
MADRAS AIRPORT  PTCLDY      93  46  20  NW12    30.06R HX 89
REDMOND AIRPORT MOCLDY      88  40  19  N5      30.09R
#BEND 6E        N/A         83  40  22  CALM    29.83R
#BEND 1SW       N/A         75  43  32  S1      N/A
#BEND-AWBREY    N/A         85  48  28  S1      29.92R
#BEND-KIM LN    N/A         81  50  34  SW1     30.10S
#CULVER         N/A         93  52  25  CALM    30.02R HX 90
#LAKE BILLY CHINN/A         92  11   5  NW13    30.06R HX 88
#POWELL BUTTE 3EN/A         81  51  35  W5      N/A
#POWELL BUTTE   N/A         84  45  26  NW2     29.76R
#PRINEVILLE 3N  N/A         83  51  33  CALM    29.85R


ORZ509-290410-
EAST SLOPES OF OREGON CASCADES

CITY            SKY/WX      TMP DP  RH  WIND    PRES   REMARKS
#BLUE BOX PASS  N/A         72  16  12  NW5     N/A
#BLACK BUTTE RNCN/A         78  56  47  CALM    29.93S
#CAMP SHERMAN   N/A         79  54  42  CALM    30.01R
#LA PINE DOT    N/A         79  33  19  W3      N/A
#LA PINE 4NW    N/A         76  49  39  CALM    29.98S
#LAVA BUTTE DOT N/A         74  44  34  CALM    N/A
#SISTERS AIRPOR N/A         88  55  33  N5      30.09S
#SISTERS ODOT   N/A         88  N/A N/A SW7     N/A
#SISTERS 3N     N/A         86  45  24  CALM    N/A
#SUNRIVER       N/A         70  55  59  CALM    29.85R
#SUNRIVER AP    N/A         70  55  59  CALM    29.92R
#SUTTLE LK DOT  N/A         77  54  45  W20     N/A
#TUMALO 3W      N/A         87  46  24  NW10    29.79S
#WANOGA BUTTE D N/A         74  41  30  NW3     N/A

$$

ORZ044-290410-
LOWER COLUMBIA BASIN...OREGON

CITY            SKY/WX      TMP DP  RH  WIND    PRES   REMARKS
HERMISTON       CLEAR       94  47  20  W3      29.90S HX 90
#BOARDMAN SCHOOLN/A         102 42  13  CALM    29.85S HX 97
#BOARDMAN 3W    N/A         91  62  38  CALM    29.59S HX 91
#BOARDMAN 8SW   N/A         99  48  18  CALM    29.86S HX 96
#IONE SCHOOL    N/A         99  41  14  CALM    29.93R HX 95
#IRRIGON 4NW    N/A         95  51  23  W2      N/A    HX 92
#UMATILLA SCHOOLN/A         102 66  31  CALM    29.97R HX 107
#UMATILLA       N/A         98  54  23  CALM    29.85F HX 96
$$

ORZ507-290410-
NORTHERN FOOTHILLS OF THE BLUES

CITY            SKY/WX      TMP DP  RH  WIND    PRES   REMARKS
PENDLETON AIRPT CLEAR       93  41  17  NW8     29.96S HX 89
#ADAMS 3WNW     N/A         94  44  18  NE1     29.86R HX 90
#ATHENA         N/A         92  48  22  CALM    29.89S HX 89
#HELIX SCHOOL   N/A         95  43  17  CALM    29.87R HX 91
#HELIX 3N       N/A         92  41  17  N2      29.96S HX 88
#HOLDMAN 5SE    N/A         94  48  21  CALM    29.96S HX 91
#HOLDMAN 6E     N/A         97  46  18  CALM    29.69S HX 93
#M-F FERNDALE   N/A         95  60  31  CALM    29.91S HX 95
#M-F GROVE ELEM N/A         94  52  24  CALM    29.93R HX 91
#M-FREEWATER 5SEN/A         91  64  41  CALM    29.95R HX 93
#PDT AQUATIC CTRN/A         97  43  16  W2      29.89S HX 93
#PENDLETON DNTN N/A         93  46  20  CALM    29.89S HX 89
#PENDLETON 5NE  N/A         96  50  21  CALM    29.91R HX 93
#PDT SUNRIDGE   N/A         96  46  18  NW3     29.95R HX 92
#PENDLETON 7NW  N/A         94  58  30  CALM    28.54R HX 93
#PILOT ROCK     N/A         90  43  20  CALM    30.01R HX 86
#TUTUILLA       N/A         93  50  23  W3      29.83R HX 90
#UMAPINE 2E     N/A         92  58  32  CALM    29.87S HX 91
#WESTON SCHOOL  N/A         93  42  17  CALM    29.95S HX 89

$$

ORZ508-290410-
SOUTHERN FOOTHILLS OF THE BLUES

CITY            SKY/WX      TMP DP  RH  WIND    PRES   REMARKS
#AJAX           N/A         N/A N/A N/A NW8     30.07R
#CONDON SCHOOL  N/A         90  38  16  NW3     30.03S HX 86
#CONDON 5W      N/A         87  34  15  N9      30.08S
#FOSSIL SCHOOL  N/A         92  38  15  N7      30.03R HX 88
#HEPPNER 4NE    N/A         89  38  17  CALM    29.89R
#LEXINGTON 2SE  N/A         98  41  14  CALM    29.95R HX 93
#MIKKALO        N/A         94  41  16  NW7     30.02R HX 90
#OLEX 4N        N/A         97  42  15  W7      29.93R HX 93
#RUGGS 5NE      N/A         91  -9   2  VRB7    30.30R HX 87
#RUGGS 2SW      N/A         90  38  16  N1      29.93R HX 86

$$

ORZ502-503-290410-
BLUE MOUNTAINS

CITY            SKY/WX      TMP DP  RH  WIND    PRES   REMARKS
MEACHAM         PTCLDY      77  45  32  CALM    30.15R
#BATTLE MTN DOT N/A         79  49  35  N2      N/A
#HARDMAN 10S    N/A         82  39  22  N3      30.21R
#HEPPNER 15SE   N/A         80  39  23  S1      30.11R
#LADD CYN SMT   N/A         87  39  18  N8      N/A
#LADD CREEK ODOTN/A         87  51  29  NE2     N/A
#LONG CREEK HS  N/A         85  37  18  N5      30.07R
#PIKES PEAK     N/A         85  46  26  SW6     27.99S
#TOLLGATE 9W    N/A         87  53  31  NW3     N/A
#TROY SCHOOL    N/A         95  54  25  N1      29.70R HX 93
#UKIAH          N/A         86  40  20  N5      29.94R
#WESTON 4E      N/A         91  44  20  CALM    29.84R HX 87
$$

ORZ505-290410-
JOHN DAY BASIN

CITY            SKY/WX      TMP DP  RH  WIND    PRES   REMARKS
JOHN DAY        PTCLDY      87  43  22  E12     30.12R
#MONUMENT HS    N/A         94  39  15  N7      29.73S HX 90
#MT. VERNON 5SE N/A         87  38  18  N2      30.09R
#WINLOCK        N/A         84  40  21  CALM    30.15S
$$

ORZ506-290410-
OCHOCO AND JOHN DAY HIGHLANDS

CITY            SKY/WX      TMP DP  RH  WIND    PRES   REMARKS
#BUCK CREEK DOT N/A         89  43  20  NW9     N/A
#HORSE RIDGE DO N/A         82  37  20  NW3     N/A
#KEYES SMT DOT  N/A         85  34  16  N7      N/A
#PINE MTN OBS   N/A         74  38  27  NW9G25  N/A
#PRAIRIE CITY   N/A         79  46  31  CALM    29.89R
#SENECA 9NW     N/A         82  38  21  CALM    29.83R
$$

ORZ049-290410-
GRANDE RONDE VALLEY

CITY            SKY/WX      TMP DP  RH  WIND    PRES   REMARKS
LA GRANDE       PTCLDY      88  45  23  CALM    30.05R
#COVE           N/A         84  58  41  N1      29.98R
#COVE SCHOOL    N/A         85  53  33  CALM    30.03S
#COVE 6NW       N/A         85  46  26  N7      29.90R
#ELGIN 3N       N/A         89  42  19  CALM    29.78R
#ELGIN 1E       N/A         92  50  24  CALM    N/A    HX 89
#IMBLER SCHOOL  N/A         84  48  29  CALM    30.01R
#ISLAND CITY 4N N/A         85  49  29  N8      29.81R
#LADD CYN DOT   N/A         88  49  26  NE7     N/A
#UNION 1S       N/A         84  53  34  SE1     29.79R
$$

ORZ050-290410-
WALLOWA COUNTY

CITY            SKY/WX      TMP DP  RH  WIND    PRES   REMARKS
#ENTERPRISE HS  N/A         88  46  23  N1      30.09R
#IMNAHA 10S     N/A         92  41  17  NE1     30.01R HX 88
#JOSEPH 3N      N/A         80  50  35  CALM    30.14R
#JOSEPH 3W      N/A         78  38  24  SW1     30.03R
#LOSTINE        N/A         83  50  32  CALM    29.67R
#MT HOWARD 8000 N/A         67  36  32  N1      30.48R
#PROMISE 1S     N/A         87  48  26  SW6     29.98R
#SHEEP RDG 7000 N/A         71  36  28  CALM    29.91S
#WALLOWA SCHOOL N/A         90  46  22  CALM    30.72R HX 87



$$



USA.gov is the U.S. government's official web portal to all federal, state and local government web resources and services.